Regional Weather Roundup
Issued by NWS Bismarck, ND

Home | Current Version | Previous Version | Text Only | Print | Product List | Glossary On
Versions: 1 2 3 4 5 6 7 8 9 10 11 12 13 14 15 16 17 18 19 20 21 22 23 24 25 26 27 28 29 30 31 32 33 34 35 36 37 38 39 40 41 42 43 44 45 46 47 48 49 50
000
ASUS43 KBIS 291510
RWRBIS

NWR BROADCAST TEXT
NATIONAL WEATHER SERVICE BISMARCK ND
1000 AM CDT THU SEP 29 2016

NOTE: "FAIR" INDICATES FEW OR NO CLOUDS BELOW 12,000 FEET WITH NO
SIGNIFICANT WEATHER AND/OR OBSTRUCTIONS TO VISIBILITY.


CITY           SKY/WX    TMP DP  RH WIND       PRES   REMARKS
WILLISTON      SUNNY     57  44  62 SE9       30.26S
MINOT          SUNNY     54  47  77 SE10      30.34S
MINOT AFB      SUNNY     52  47  83 S14       30.33S
BISMARCK       SUNNY     51  47  86 SE9       30.40S
DICKINSON      SUNNY     53  44  71 SE13      30.28F
GARRISON         N/A     53  48  83 S9        30.35S
HETTINGER ARPT SUNNY     53  44  71 SE13      30.32F
JAMESTOWN      SUNNY     50  47  89 S8        30.45R
BEACH          FAIR      57  39  51 SE17G24   30.27S
CARRINGTON     FAIR      52  48  87 SE10      30.46R
HAZEN          FAIR      54  46  76 SE10      30.38S
MANDAN         FAIR      50  48  93 SE10      30.39S
RUGBY          FAIR      52  48  87 SE14      30.40S
STANLEY        FAIR      52  50  93 S13G21    30.34S
WATFORD CITY   FAIR      54  45  71 SE10      30.28S
$$

CITY           SKY/WX    TMP DP  RH WIND       PRES   REMARKS
GRAND FORKS    CLOUDY    54  47  77 S9        30.48R
GRAND FORKS AF MOSUNNY   54  48  82 S6        30.48R
DEVILS LAKE    SUNNY     53  48  83 SE10      30.45R
FARGO          CLOUDY    57  47  69 SE3       30.49S
CANDO          FAIR      54  54 100 S9        30.45S
CAVALIER       FAIR      52  48  87 S8        30.47S
GRAFTON        FAIR      54  52  94 S8        30.50R
GWINNER        FAIR      52  48  87 SE3       30.49R
LANGDON        FAIR      54  52  94 S10       30.44F
ROLLA          FAIR      50  48  93 S12G17    30.42S
WALHALLA       FAIR      52  48  87 SE9       30.46S
$$

CITY           SKY/WX    TMP DP  RH WIND       PRES   REMARKS
ABERDEEN       SUNNY     53  46  77 S12       30.47S
MOBRIDGE       SUNNY     55  46  71 S13       30.38S
BUFFALO          N/A     56  41  57 SE15      30.22F
RAPID CITY     SUNNY     52  39  61 SE10      30.31S
GLASGOW        SUNNY     60  43  53 SE13      30.12F
SIDNEY         SUNNY     57  44  62 CALM      30.23F
WOLF POINT     SUNNY     59  42  53 E8        30.16F
GLENDIVE       SUNNY     59  42  53 E5        30.21S
MILES CITY     SUNNY     61  43  51 SE14      30.15S
BAKER          SUNNY     56  39  53 SE23G32   30.24S
$$

CITY           SKY/WX    TMP DP  RH WIND       PRES   REMARKS
BILLINGS       MOSUNNY   52  47  83 S9        30.14F
GREAT FALLS    MOSUNNY   52  47  83 CALM      30.10S
REGINA         MOSUNNY   55  43  62 SE17      30.19F
ESTEVAN        MOSUNNY   54  46  76 E10       30.27S
$$





USA.gov is the U.S. government's official web portal to all federal, state and local government web resources and services.